{"data":{"norad_id":44793,"intl_designator":"2019-078A","name":"BEIDOU-3 M22 (C44)","alt_names":[],"object_type":"PAYLOAD","status":"ACTIVE","operator":null,"country":"PRC","launch_date":"2019-11-23","launch_site_code":"XICLF","launch_vehicle":null,"mission":null,"orbit_class":"UNKNOWN","rcs_meters":null,"size_class":null,"mass_kg":null,"dimensions":null,"purposes":["earth_obs","nav"],"wikipedia_slug":null,"has_3d_model":false,"image_url":null,"decayed_at":null,"tle_current":{"epoch":"2026-09-20T02:59:18.844224Z","epoch_age_seconds":47182,"freshness":"FRESH","line1":"1 44793U 19078A   26263.12452366 -.00000021  00000+0  00000+0 0  9992","line2":"2 44793  53.8468 296.4789 0004896  40.1336 319.9624  1.86227529 46413","mean_motion":1.86227529,"eccentricity":0.0004896,"inclination_deg":53.8468,"raan_deg":296.4789,"arg_perigee_deg":40.1336,"mean_anomaly_deg":319.9624,"bstar":0,"rev_number":4641,"period_min":773.24765448614,"perigee_km":21514.735275934,"apogee_km":21542.061355315,"semimajor_km":27906.535315625,"source":"CELESTRAK","updated_at":"2026-09-20T09:00:46.713361Z"}}}